Whitefield, NH

9:25 PM EDT on March 30, 2017 (GMT -0400)
Mount Washington Regional

Weather History for KHIE - October, 2011

Change the Weather History Date:

Tuesday, October 11, 2011

  Actual Average Record
Temperature  
Mean Temperature 50 °F -  
Max Temperature 68 °F 56 °F 75 °F (2003)
Min Temperature 32 °F 30 °F 24 °F (1996)
Degree Days  
Heating Degree Days 15    
Moisture  
Dew Point 36 °F    
Average Humidity 74    
Maximum Humidity 100    
Minimum Humidity 25    
Precipitation  
Precipitation 0.00 in - - ()
Sea Level Pressure  
Sea Level Pressure 30.25 in    
Wind  
Wind Speed 0 mph (WSW)    
Max Wind Speed 4 mph    
Max Gust Speed -    
Visibility 10 miles    
Events      
Averages and records for this station are not official NWS values.
T = Trace of Precipitation, MM = Missing Value Source: NWS Daily Summary

Daily Weather History Graph

Daily Weather History Graph

Search for Another Location

Airport or City:

Trip Planner

Search our weather history database for the weather conditions in past years. The results will help you decide how hot, cold, wet, or windy it might be!

Date:

Astronomy

Oct. 11, 2011 Rise Set
Actual Time 6:55 AM EDT 6:09 PM EDT
Civil Twilight 6:26 AM EDT 6:38 PM EDT
Nautical Twilight 5:53 AM EDT 7:12 PM EDT
Astronomical Twilight 5:19 AM EDT 7:45 PM EDT
Moon 5:37 PM EDT (10/11) 6:32 AM EDT (10/11)
Length of Visible Light 12h 11m
Length of Day
11h 13m
Full, 100% of the Moon is Illuminated
Oct 11
Full
Oct 11
Full
Oct 19
Last Quarter
Oct 26
New
Nov 2
First Quarter

Hourly Weather History & Observations

Time (EDT) Temp. Dew Point Humidity Pressure Visibility Wind Dir Wind Speed Gust Speed Precip Events Conditions
12:52 AM 37.0 °F 35.1 °F 93% 30.23 in 10.0 mi Calm Calm - N/A   Clear
1:52 AM 35.1 °F 34.0 °F 96% 30.25 in 10.0 mi Calm Calm - 0.00 in   Clear
2:52 AM 32.0 °F 32.0 °F 100% 30.24 in 10.0 mi Calm Calm - N/A   Clear
3:52 AM 33.1 °F 32.0 °F 96% 30.24 in 10.0 mi Calm Calm - N/A   Clear
4:52 AM 33.1 °F 30.9 °F 92% 30.25 in 10.0 mi Calm Calm - N/A   Clear
5:52 AM 32.0 °F 30.9 °F 96% 30.26 in 10.0 mi Calm Calm - N/A   Clear
6:52 AM 32.0 °F 30.0 °F 92% 30.29 in 10.0 mi Calm Calm - 0.00 in   Clear
7:52 AM 33.1 °F 32.0 °F 96% 30.32 in 10.0 mi Calm Calm - N/A   Clear
8:52 AM 39.0 °F 37.0 °F 93% 30.32 in 10.0 mi Calm Calm - N/A   Clear
9:52 AM 48.9 °F 41.0 °F 74% 30.30 in 10.0 mi Calm Calm - N/A   Clear
10:52 AM 57.0 °F 39.9 °F 53% 30.27 in 10.0 mi Calm Calm - N/A   Clear
11:52 AM 61.0 °F 36.0 °F 39% 30.25 in 10.0 mi WSW 3.5 mph - N/A   Clear
12:52 PM 64.9 °F 35.1 °F 33% 30.23 in 10.0 mi Calm Calm - N/A   Clear
1:52 PM 66.0 °F 34.0 °F 30% 30.22 in 10.0 mi Calm Calm - N/A   Clear
2:52 PM 68.0 °F 30.9 °F 25% 30.21 in 10.0 mi Calm Calm - N/A   Clear
3:52 PM 68.0 °F 32.0 °F 26% 30.20 in 10.0 mi Calm Calm - N/A   Clear
4:52 PM 64.9 °F 37.0 °F 36% 30.20 in 10.0 mi Calm Calm - N/A   Clear
5:52 PM 55.0 °F 46.0 °F 72% 30.21 in 10.0 mi Calm Calm - N/A   Clear
6:52 PM 51.1 °F 44.1 °F 77% 30.22 in 10.0 mi Calm Calm - N/A   Clear
7:52 PM 45.0 °F 41.0 °F 86% 30.24 in 10.0 mi Calm Calm - N/A   Clear
8:52 PM 42.1 °F 39.0 °F 89% 30.24 in 10.0 mi Calm Calm - N/A   Clear
9:52 PM 39.9 °F 37.0 °F 89% 30.24 in 10.0 mi Calm Calm - N/A   Clear
10:52 PM 39.0 °F 37.0 °F 93% 30.24 in 10.0 mi Calm Calm - N/A   Clear
11:52 PM 37.9 °F 36.0 °F 93% 30.25 in 10.0 mi Calm Calm - N/A   Clear